Wind_Speed
12 16 19 24 28 21 8 1 3 4 3 4 5 7 12 17 20 22 21 25 25 24 25 22 23 25 23 19 29 24 25 27 27 25 23 26 27 26 30 27 28 29 29
13 18 16 17 21 24 22 7 4 3 2 3 3 8 9 13 15 17 16 18 24 28 28 26 28 27 26 26 29 30 27 28 30 26 26 28 29 28 31 31 29 29 31
18 20 20 19 18 18 17 14 15 13 5 7 6 5 9 10 9 12 16 21 25 27 28 29 30 31 31 33 22 27 27 27 27 23 25 30 32 32 32 36 34 35 36
16 18 21 20 21 19 17 12 11 10 12 10 4 9 11 14 16 18 20 22 26 23 31 32 32 32 33 32 29 25 21 20 23 26 26 27 31 31 33 33 36 30 28
21 25 28 24 21 20 16 13 10 9 10 8 7 9 10 11 13 18 21 26 30 28 31 31 34 34 30 29 31 29 29 29 31 29 26 25 25 30 29 26 23 21 22
20 24 27 25 22 19 17 14 14 12 9 9 10 10 13 10 10 11 14 19 23 24 28 31 33 34 30 25 29 31 33 36 32 26 24 27 26 27 28 26 24 27 25
23 23 20 24 22 21 16 11 13 13 14 11 12 15 15 16 17 18 17 16 19 21 22 25 26 27 29 32 29 28 28 27 27 29 28 28 29 30 31 32 34 34 32
23 24 19 19 18 14 11 10 14 15 18 20 19 19 20 20 21 22 22 23 23 24 24 26 28 30 30 26 27 27 28 27 25 26 29 33 33 33 34 35 35 36 38
22 20 17 15 11 15 14 15 16 19 23 25 23 22 21 22 24 23 23 25 26 27 29 30 30 29 28 27 27 27 28 29 32 34 35 35 36 39 41 41 42 45 44
21 18 17 19 17 17 17 17 20 22 21 21 22 21 23 25 23 23 24 26 27 30 32 33 33 34 33 31 30 30 32 34 35 35 38 44 41 44 45 46 42 45 47
17 16 17 19 19 22 23 23 24 22 21 24 25 26 23 25 24 27 27 28 30 31 30 32 33 36 38 39 40 40 40 43 44 46 47 47 44 46 45 44 43 41 44
18 17 19 19 22 21 24 24 23 23 24 26 26 24 28 30 31 31 33 36 35 32 30 32 35 35 35 37 40 41 43 39 37 42 48 51 45 49 54 56 53 54 52
22 24 22 19 19 21 23 26 29 27 25 24 23 17 24 28 24 28 35 34 30 29 28 28 25 27 29 31 32 34 39 47 49 46 44 46 47 50 48 49 47 47 46
28 28 26 23 22 23 26 28 26 27 28 32 28 24 21 21 23 27 31 30 34 34 31 30 33 37 38 38 34 34 37 39 40 43 43 45 46 47 47 48 50 50 51
32 33 30 26 23 22 22 25 27 27 26 26 25 24 23 22 22 23 25 27 29 31 31 28 29 32 34 36 38 41 44 45 47 49 51 52 53 55 56 56 56 57 59
31 30 27 24 21 20 19 19 21 22 24 24 23 22 23 24 24 25 23 24 26 28 30 33 36 38 40 42 44 47 49 52 54 56 58 59 60 61 63 64 64 64 64
28 26 24 21 20 19 18 18 19 19 19 19 19 19 20 21 22 24 27 28 31 33 36 38 41 44 47 50 52 54 56 58 60 61 62 62 63 64 65 65 65 64 62
24 23 23 23 21 20 20 18 17 16 17 18 19 20 22 24 26 28 30 33 35 37 41 45 48 51 53 55 57 58 58 58 59 60 61 62 63 64 64 63 61 58 55
23 23 21 20 19 18 14 12 12 14 17 19 21 23 25 28 30 32 34 37 41 44 48 50 53 55 56 57 56 56 56 56 57 58 58 59 60 61 61 60 56 49 45
20 19 17 16 13 13 15 16 18 19 20 21 23 27 30 31 33 36 39 43 47 50 54 56 58 55 55 53 53 53 52 51 49 49 49 49 49 49 48 46 41 37 34
18 17 17 19 18 20 19 19 21 22 23 26 30 32 33 35 38 41 45 49 52 55 54 55 55 53 50 49 49 48 47 46 45 44 44 42 40 37 34 30 28 27 26
20 19 18 20 21 20 20 23 27 27 29 31 32 34 38 41 45 48 51 52 52 50 48 47 47 47 47 47 47 45 44 41 36 38 37 35 32 29 26 22 20 19 18
19 21 19 19 23 22 22 23 26 29 30 33 36 38 42 46 49 49 48 45 44 43 43 43 44 45 45 44 41 38 35 33 34 33 31 29 27 24 19 15 15 14 14
16 19 20 17 20 22 22 25 28 30 33 38 41 45 47 47 45 42 40 40 40 38 37 38 39 40 39 36 31 31 28 29 27 27 26 23 22 20 15 14 13 11 9
15 14 18 21 22 24 25 29 31 35 38 42 45 46 45 40 38 36 36 35 33 33 33 33 34 34 31 28 28 26 24 21 21 21 20 18 14 10 8 6 3 4 4
13 18 21 22 25 26 30 33 36 40 43 46 46 42 37 34 32 32 30 30 30 29 29 29 28 27 26 26 24 22 20 17 16 14 10 6 7 8 9 9 6 3 2
Wind_Direction
3 8 4 5 13 10 13 141 75 86 135 203 190 219 214 215 214 222 227 219 227 232 235 233 242 254 258 258 249 269 269 264 262 269 266 265 270 270 281 279 282 284 284
1 5 3 4 7 12 16 4 294 325 245 224 168 201 204 214 219 222 220 215 229 237 238 237 242 255 254 263 262 268 265 260 261 265 264 274 279 284 271 290 282 288 287
342 343 351 350 348 355 3 13 5 10 267 231 221 225 217 217 231 237 239 236 245 247 238 243 240 242 247 256 258 265 265 262 266 264 272 273 272 271 273 281 279 287 283
335 341 340 336 334 341 343 352 6 359 358 354 256 254 256 260 259 254 244 248 255 266 243 240 242 243 249 247 249 257 252 264 268 269 270 269 276 275 278 280 286 284 277
319 329 328 328 328 328 334 338 337 348 358 338 324 328 309 281 265 257 256 253 255 257 250 248 248 247 238 253 251 243 255 269 271 275 269 272 269 280 279 278 277 274 277
313 317 320 321 326 332 328 317 328 323 325 327 319 309 302 306 289 283 276 267 259 260 258 259 258 254 253 256 256 264 270 274 273 267 263 276 262 264 268 275 272 274 274
310 313 314 312 317 328 325 305 309 312 309 299 293 297 292 289 288 288 288 283 278 275 267 257 257 255 263 273 279 274 270 278 268 261 263 258 263 267 274 276 276 275 275
309 308 308 305 317 333 328 314 298 298 294 291 289 288 290 286 281 283 284 282 281 281 281 279 277 274 273 271 271 273 275 273 268 262 261 267 268 272 274 276 277 279 280
305 297 295 289 283 298 284 281 284 287 288 285 282 282 284 285 276 281 286 285 282 280 284 284 281 276 271 269 271 272 272 269 268 268 268 270 274 278 277 275 275 276 279
310 296 288 283 283 299 293 280 281 287 285 283 288 286 292 287 288 282 283 281 284 282 280 279 277 277 278 277 276 276 276 275 274 274 279 279 275 277 278 275 276 281 279
311 294 281 281 276 293 290 286 282 283 282 284 286 290 293 288 287 285 286 287 282 281 275 275 276 277 276 277 279 276 280 280 279 279 280 281 277 274 281 277 274 274 276
311 311 300 284 275 279 280 281 283 290 290 287 288 286 288 292 285 290 289 289 285 284 282 275 275 274 276 278 278 278 279 275 289 293 280 273 271 281 281 279 279 278 275
311 312 307 297 292 282 276 284 280 287 276 279 284 283 289 296 299 295 289 288 269 273 283 278 288 292 294 288 289 288 287 285 289 291 288 283 283 287 285 280 289 296 296
310 309 305 300 290 287 276 275 280 281 272 269 298 304 296 288 285 284 284 284 288 281 283 269 285 296 294 295 301 300 297 295 298 294 292 291 288 286 285 285 286 283 280
304 303 301 297 293 290 288 284 284 286 290 290 294 297 296 292 290 288 287 290 289 289 292 299 298 297 295 292 292 291 290 289 288 289 289 289 287 287 286 284 282 279 278
297 299 299 298 299 292 289 285 284 288 290 290 294 293 291 294 296 298 300 299 298 298 296 294 294 295 296 295 294 292 291 291 291 290 288 287 285 284 283 282 282 281 281
298 297 298 299 299 296 290 290 286 281 282 289 292 290 288 288 289 291 293 293 293 294 296 298 299 299 298 297 296 294 293 292 291 289 286 284 282 280 279 279 279 281 283
294 295 296 296 292 287 282 282 284 286 289 288 288 288 289 292 295 296 296 296 296 297 299 299 300 301 301 301 300 299 298 295 292 289 287 285 284 283 282 281 280 280 280
293 295 295 291 282 278 276 277 278 280 286 291 293 295 297 298 297 297 298 299 300 301 302 303 305 305 304 303 302 300 298 296 295 293 291 288 285 282 280 278 277 275 273
290 289 283 275 268 273 282 285 288 293 296 293 295 301 303 303 303 304 307 308 309 309 309 308 307 305 303 301 299 298 297 298 299 299 299 300 297 291 284 278 273 267 264
280 268 270 273 275 286 292 292 294 297 301 304 305 306 309 310 311 312 313 313 313 311 309 307 306 305 303 302 303 305 305 306 306 305 308 306 300 294 286 277 267 263 261
271 270 274 281 286 289 292 293 295 298 301 306 309 312 314 314 314 313 313 312 310 308 307 307 308 308 308 307 307 307 308 310 310 311 311 308 303 297 287 275 266 259 255
257 266 269 282 282 289 288 293 299 303 308 310 311 313 315 315 315 313 312 310 310 312 312 312 312 310 309 309 309 310 312 314 314 314 313 310 306 299 285 268 252 245 244
268 276 282 283 282 289 295 301 306 309 312 315 316 316 317 316 314 311 312 313 314 315 315 316 315 315 316 314 313 314 314 315 318 317 316 315 312 297 273 255 240 232 232
278 284 292 295 295 299 305 310 313 313 314 316 317 316 314 312 313 313 314 315 317 319 321 323 324 325 322 319 319 319 317 321 318 319 324 324 316 296 279 266 224 127 92
288 289 293 298 305 310 311 311 313 316 316 315 313 311 311 311 314 315 315 317 321 323 325 330 334 340 339 332 328 331 333 337 339 338 346 13 50 65 65 63 69 111 153
Height
5831 5828 5825 5821 5817 5813 5809 5809 5809 5809 5809 5809 5809 5811 5813 5816 5820 5823 5825 5828 5832 5835 5840 5843 5845 5847 5849 5852 5853 5853 5852 5852 5853 5853 5854 5853 5853 5853 5850 5851 5851 5850 5850
5831 5828 5825 5822 5819 5816 5814 5811 5810 5810 5810 5810 5809 5812 5814 5817 5819 5821 5822 5824 5828 5832 5835 5837 5839 5841 5843 5845 5846 5846 5846 5846 5846 5848 5846 5845 5845 5846 5843 5843 5843 5843 5842
5830 5827 5825 5822 5820 5817 5815 5813 5812 5810 5810 5810 5812 5813 5815 5816 5818 5819 5821 5824 5826 5828 5830 5832 5834 5836 5837 5837 5837 5838 5839 5839 5840 5841 5841 5839 5840 5839 5838 5835 5834 5835 5833
5830 5828 5825 5822 5819 5817 5815 5814 5813 5812 5812 5810 5811 5812 5813 5815 5816 5817 5819 5821 5821 5822 5823 5825 5826 5827 5829 5830 5830 5832 5833 5833 5834 5834 5833 5831 5830 5829 5830 5829 5826 5824 5824
5827 5825 5822 5820 5818 5815 5814 5813 5812 5813 5812 5812 5812 5812 5811 5811 5812 5813 5815 5816 5817 5818 5818 5819 5820 5821 5821 5823 5823 5825 5825 5826 5827 5826 5827 5823 5820 5820 5819 5817 5817 5816 5815
5824 5823 5818 5816 5814 5813 5812 5811 5810 5810 5810 5810 5810 5810 5809 5810 5809 5810 5809 5810 5811 5811 5812 5812 5812 5814 5815 5816 5817 5817 5817 5817 5818 5816 5817 5815 5813 5813 5812 5811 5812 5810 5811
5821 5818 5818 5813 5811 5810 5809 5809 5809 5808 5807 5808 5808 5808 5807 5807 5806 5806 5806 5806 5806 5806 5807 5807 5808 5808 5808 5809 5809 5808 5808 5808 5809 5809 5807 5807 5806 5805 5804 5804 5802 5802 5802
5816 5813 5812 5810 5809 5807 5805 5806 5806 5805 5805 5804 5804 5804 5803 5802 5801 5801 5801 5800 5800 5801 5801 5801 5801 5800 5801 5801 5800 5800 5800 5800 5801 5800 5800 5800 5799 5797 5796 5794 5794 5792 5789
5812 5809 5808 5807 5806 5804 5804 5802 5802 5802 5799 5798 5799 5798 5798 5798 5797 5796 5795 5795 5794 5794 5793 5793 5793 5793 5794 5794 5793 5793 5793 5792 5793 5792 5791 5790 5788 5786 5784 5782 5780 5779 5777
5805 5803 5802 5801 5802 5800 5799 5798 5797 5796 5795 5793 5793 5794 5794 5793 5792 5792 5791 5790 5789 5788 5787 5786 5785 5785 5785 5785 5785 5784 5784 5783 5782 5780 5780 5778 5776 5775 5773 5770 5766 5765 5764
5802 5800 5799 5798 5796 5795 5794 5793 5792 5792 5790 5789 5788 5787 5787 5786 5786 5785 5784 5783 5782 5781 5781 5780 5779 5779 5778 5777 5776 5776 5774 5774 5772 5770 5768 5766 5764 5762 5761 5757 5752 5750 5750
5796 5795 5794 5793 5791 5790 5789 5788 5785 5785 5784 5783 5782 5781 5781 5780 5779 5777 5775 5774 5773 5771 5772 5772 5771 5769 5768 5766 5765 5764 5762 5761 5759 5757 5755 5753 5751 5749 5746 5744 5737 5734 5732
5791 5790 5789 5788 5786 5784 5783 5781 5780 5779 5778 5778 5777 5776 5776 5775 5773 5770 5768 5767 5765 5763 5764 5762 5761 5760 5759 5757 5755 5754 5752 5749 5746 5744 5742 5741 5739 5736 5732 5729 5725 5722 5720
5785 5784 5782 5781 5779 5777 5776 5774 5772 5772 5771 5770 5769 5768 5768 5767 5764 5763 5762 5760 5759 5758 5756 5754 5752 5751 5749 5747 5744 5742 5739 5736 5734 5731 5728 5727 5724 5722 5718 5714 5712 5708 5704
5779 5778 5776 5774 5773 5771 5770 5768 5766 5765 5764 5764 5763 5761 5760 5759 5758 5756 5755 5753 5751 5750 5748 5747 5744 5742 5739 5737 5734 5731 5728 5724 5720 5717 5714 5710 5707 5704 5701 5697 5694 5691 5688
5773 5771 5769 5768 5767 5765 5763 5761 5760 5759 5758 5757 5756 5755 5754 5753 5751 5749 5747 5746 5745 5743 5741 5738 5735 5732 5729 5725 5722 5719 5716 5709 5704 5700 5696 5692 5688 5684 5681 5678 5674 5670 5667
5765 5764 5763 5761 5760 5758 5757 5756 5755 5754 5753 5751 5750 5750 5749 5748 5746 5744 5742 5739 5737 5734 5731 5727 5723 5720 5716 5711 5707 5702 5697 5693 5687 5680 5676 5672 5667 5663 5659 5656 5653 5650 5647
5758 5757 5757 5756 5754 5753 5752 5751 5749 5748 5748 5747 5746 5745 5743 5741 5739 5736 5733 5730 5727 5724 5720 5716 5711 5705 5700 5694 5688 5681 5675 5669 5664 5658 5653 5649 5644 5639 5636 5634 5632 5632 5629
5751 5750 5749 5749 5749 5748 5747 5746 5746 5745 5744 5742 5741 5739 5736 5733 5730 5727 5724 5720 5716 5712 5707 5703 5696 5689 5682 5675 5668 5662 5656 5650 5643 5637 5632 5628 5623 5618 5615 5613 5612 5613 5612
5745 5745 5745 5744 5744 5744 5743 5742 5740 5739 5738 5737 5735 5731 5727 5725 5722 5718 5713 5708 5703 5697 5691 5684 5680 5672 5665 5657 5650 5644 5638 5633 5628 5620 5615 5609 5604 5599 5595 5593 5594 5596 5598
5740 5741 5740 5740 5739 5738 5737 5736 5734 5733 5731 5729 5725 5722 5719 5716 5711 5706 5701 5695 5688 5682 5675 5668 5661 5655 5649 5643 5635 5628 5623 5618 5612 5605 5599 5594 5588 5584 5581 5580 5582 5584 5587
5735 5736 5736 5734 5733 5732 5732 5730 5728 5726 5723 5720 5716 5712 5708 5703 5698 5693 5687 5681 5675 5669 5662 5655 5648 5642 5637 5630 5623 5617 5611 5606 5601 5595 5589 5584 5579 5575 5573 5573 5574 5577 5579
5729 5729 5731 5729 5727 5727 5726 5723 5721 5718 5715 5711 5708 5702 5697 5691 5686 5679 5674 5668 5662 5657 5651 5644 5638 5631 5624 5618 5612 5606 5601 5596 5591 5586 5581 5576 5572 5569 5567 5568 5569 5571 5573
5722 5722 5722 5724 5722 5720 5718 5716 5712 5709 5705 5700 5695 5689 5683 5677 5673 5668 5662 5657 5652 5647 5642 5636 5629 5622 5615 5608 5604 5599 5594 5589 5584 5580 5575 5571 5567 5565 5565 5565 5566 5567 5569
5717 5716 5715 5715 5713 5711 5709 5705 5702 5698 5693 5688 5682 5677 5671 5666 5662 5658 5653 5649 5645 5639 5634 5628 5621 5614 5608 5602 5597 5592 5588 5584 5580 5576 5572 5568 5566 5564 5564 5564 5564 5565 5567
5709 5709 5707 5706 5704 5701 5699 5696 5691 5686 5681 5676 5671 5666 5662 5657 5654 5650 5646 5642 5638 5633 5627 5622 5616 5610 5603 5598 5593 5588 5584 5580 5576 5574 5571 5568 5566 5565 5565 5565 5566 5568 5569